TimeCDT,TemperatureF,Dew PointF,Humidity,Sea Level PressureIn,VisibilityMPH,Wind Direction,Wind SpeedMPH,Gust SpeedMPH,PrecipitationIn,Events,Conditions,WindDirDegrees,DateUTC
12:00 AM,-5.8,-13.0,71,29.93,15.0,South,4.6,-,N/A,,Clear,190,2013-10-31 05:00:00
1:00 AM,-5,-11,63,29.93,15,South,5.8,,,Snow,Snow,180,2013-10-31 06:00:00
1:00 AM,-4.0,-11.2,71,29.93,15.0,South,5.8,-,N/A,,Clear,180,2013-10-31 06:00:00
2:00 AM,-5.8,-11.2,77,29.94,15.0,South,4.6,-,N/A,,Clear,190,2013-10-31 07:00:00
3:00 AM,-4.0,-11.2,71,29.94,15.0,SSE,3.5,-,N/A,,Clear,160,2013-10-31 08:00:00
4:00 AM,-4.0,-11.2,71,29.95,15.0,Calm,Calm,-,N/A,,Clear,0,2013-10-31 09:00:00
5:00 AM,-5.8,-13.0,71,29.96,15.0,South,4.6,-,N/A,,Clear,180,2013-10-31 10:00:00
6:00 AM,-5.8,-13.0,71,29.96,15.0,South,3.5,-,N/A,,Clear,180,2013-10-31 11:00:00
7:00 AM,-5,-12,57,29.98,15,South,6.9,,,Snow,Snow,170,2013-10-31 12:00:00
7:00 AM,-5.8,-13.0,71,29.98,15.0,South,6.9,-,N/A,,Clear,170,2013-10-31 12:00:00
8:00 AM,-4.0,-11.2,71,29.98,15.0,SSE,3.5,-,N/A,,Partly Cloudy,150,2013-10-31 13:00:00
9:00 AM,-5.8,-13.0,71,29.99,15.0,Calm,Calm,-,N/A,,Partly Cloudy,0,2013-10-31 14:00:00
10:00 AM,-5.8,-13.0,71,29.99,10.0,Calm,Calm,-,N/A,,Partly Cloudy,0,2013-10-31 15:00:00
11:00 AM,-5.8,-11.2,77,29.99,10.0,SSE,4.6,-,N/A,,Scattered Clouds,150,2013-10-31 16:00:00
12:00 PM,-7.6,-14.8,71,29.99,8.0,SE,2.3,-,N/A,,Mostly Cloudy,130,2013-10-31 17:00:00
1:00 PM,-5,-12,59,29.99,15,South,2.3,,,Snow,Snow,180,2013-10-31 18:00:00
1:00 PM,-4.0,-11.2,71,29.99,15.0,South,2.3,-,N/A,,Mostly Cloudy,190,2013-10-31 18:00:00
2:00 PM,-2.2,-7.6,78,29.99,15.0,South,3.5,-,N/A,,Mostly Cloudy,170,2013-10-31 19:00:00
2:28 PM,-9999,-9999,N/A,-9999,15.0,South,3.5,-,N/A,,Mostly Cloudy,170,2013-10-31 19:28:00
3:00 PM,-2.2,-7.6,78,30.00,15.0,South,3.5,-,N/A,,Mostly Cloudy,170,2013-10-31 20:00:00
4:00 PM,-2.2,-9.4,71,30.01,15.0,SSE,3.5,-,N/A,,Mostly Cloudy,160,2013-10-31 21:00:00
5:00 PM,-0.4,-5.8,78,30.01,15.0,South,3.5,-,N/A,,Mostly Cloudy,170,2013-10-31 22:00:00
6:00 PM,-2.2,-9.4,71,30.01,15.0,South,6.9,-,N/A,,Mostly Cloudy,180,2013-10-31 23:00:00
6:46 PM,-9999,-9999,N/A,-9999,6.0,SE,6.9,-,N/A,,Partly Cloudy,140,2013-10-31 23:46:00
7:00 PM,-3,-9,64,30.01,6,SSE,8.1,,,,Mist,150,2013-11-01 00:00:00
7:00 PM,-2.2,-9.4,71,30.01,6.0,SSE,8.1,-,N/A,,Partly Cloudy,150,2013-11-01 00:00:00
8:00 PM,-2.2,-9.4,71,30.01,4.0,SSE,6.9,-,N/A,,Mostly Cloudy,150,2013-11-01 01:00:00
9:00 PM,-0.4,-5.8,78,30.01,10.0,SE,6.9,-,N/A,,Mostly Cloudy,140,2013-11-01 02:00:00
10:00 PM,-0.4,-7.6,72,30.01,15.0,South,6.9,-,N/A,,Mostly Cloudy,170,2013-11-01 03:00:00
11:00 PM,-0.4,-5.8,78,30.00,15.0,South,4.6,-,N/A,,Mostly Cloudy,190,2013-11-01 04:00:00
11:38 PM,-9999,-9999,N/A,-9999,10.0,SSE,4.6,-,N/A,,Overcast,150,2013-11-01 04:38:00
11:54 PM,-9999,-9999,N/A,-9999,1.0,SE,5.8,-,N/A,,Overcast,140,2013-11-01 04:54:00